Flag for U.S.A. Weather past 2 weeks in Redlands, California, U.S.A.

Now
62 °F

Low clouds.


Feels Like: 62 °F
Forecast: 61 / 88 °F
Wind: 5 mph from Northwest

Location: Riverside / March Air Force Base

Current Time: Jul 6, 2015 at 4:33:45 AM

Latest Report: Jul 6, 2015 at 3:58 AM


Visibility: 10 mi

Pressure: 29.98 "Hg

Humidity: 95%

Dew point: 61 °F

Location of RedlandsLocation

Historic Weather in Redlands — Graph

°F

Redlands temperature yesterday

Maximum temperature yesterday: 86 °F (at 3:58 PM)
Minimum temperature yesterday: 59 °F (at 5:58 AM)
Average temperature yesterday: 71 °F

Past Weeks' High & Low Weather Summary

 TemperatureHumidityPressure
High100 °F (Jun 30, 1:58 PM)100% (Jul 5, 5:58 AM)30.00 "Hg (Jul 5, 5:58 AM)
Low58 °F (Jun 21, 5:58 AM)4% (Jun 24, 1:58 PM)29.81 "Hg (Jul 3, 6:58 PM)
Average79 °F44%29.90 "Hg
* Reported Jun 21 2:58 AM — Jul 6 2:58 AM, Redlands, Weather by CustomWeather, © 2015

Note: Actual official high and low records may vary slightly from our data, if they occured in-between our weather recording intervals... More about our weather records

Advertising

Redlands weather history for previous 24 hours

 ConditionsComfort  
Time TempWeatherWind HumidityBarometerVisibility
2:58 AM
Mon, Jul 6
62 °FLow clouds.5 mph98%29.98 "Hg10 mi
1:58 AM61 °FPassing clouds.3 mph99%29.99 "Hg10 mi
12:58 AM61 °FPassing clouds.5 mph97%29.99 "Hg10 mi
11:58 PM
Sun, Jul 5
62 °FClear.7 mph90%30.00 "Hg10 mi
10:58 PM65 °FClear.9 mph80%30.00 "Hg10 mi
9:58 PM67 °FClear.6 mph74%29.99 "Hg10 mi
8:58 PM69 °FSunny.8 mph69%29.95 "Hg10 mi
7:58 PM73 °FSunny.12 mph60%29.93 "Hg10 mi
6:58 PM79 °FSunny.13 mph49%29.92 "Hg10 mi
5:58 PM81 °FSunny.13 mph44%29.90 "Hg10 mi
4:58 PM84 °FSunny.14 mph41%29.90 "Hg10 mi
3:58 PM86 °FSunny.13 mph38%29.89 "Hg10 mi
2:58 PM84 °FSunny.12 mph42%29.91 "Hg10 mi
1:58 PM83 °FSunny.10 mph46%29.93 "Hg10 mi
12:58 PM80 °FPassing clouds.9 mph50%29.94 "Hg10 mi
11:58 AM78 °FSunny.7 mph54%29.96 "Hg10 mi
10:58 AM73 °FSunny.2 mph63%29.96 "Hg10 mi
9:58 AM69 °FPassing clouds.6 mph72%29.97 "Hg7 mi
8:58 AM67 °FFog.6 mph80%29.97 "Hg6 mi
7:58 AM63 °FFog.6 mph93%29.96 "Hg6 mi
6:58 AM61 °FFog.3 mph100%29.93 "Hg5 mi
5:58 AM59 °FPassing clouds.6 mph100%29.93 "Hg8 mi
4:58 AM60 °FClear.3 mph95%29.91 "Hg10 mi
Weather by CustomWeather, © 2015

See weather overviewHow to use our weather pages